Home > Weather > Shreveport > Past weeks

Flag for USA Past Weather in Shreveport, Louisiana, USA — Yesterday and Last 2 Weeks

Now
84 °F

Partly sunny.


Feels Like: 95 °F
Forecast: 79 / 95 °F
Wind: 6 mph from Southwest

Location: Shreveport Regional Airport

Current Time: Jul 24, 2016 at 9:45:03 AM

Latest Report: Jul 24, 2016 at 8:56 AM


Visibility: 10 mi

Pressure: 29.97 "Hg

Humidity: 83%

Dew Point: 78 °F

Location of ShreveportLocation

Past Weather in Shreveport — Graph

°F

Shreveport Temperature Yesterday

Maximum temperature yesterday: 99 °F (at 2:56 PM)
Minimum temperature yesterday: 78 °F (at 9:56 PM)
Average temperature yesterday: 87 °F

High & Low Weather Summary for the Past Weeks

 TemperatureHumidityPressure
High100 °F (Jul 22, 2:56 PM)100% (Jul 10, 9:55 PM)30.22 "Hg (Jul 10, 9:55 PM)
Low73 °F (Jul 15, 8:56 PM)13% (Jul 9, 7:54 PM)29.85 "Hg (Jul 23, 5:56 PM)
Average86 °F70%30.02 "Hg
* Reported Jul 9 7:56 AM — Jul 24 7:56 AM, Shreveport, Weather by CustomWeather, © 2016

Note: Actual official high and low records may vary slightly from our data, if they occured in-between our weather recording intervals... More about our weather records

Advertising

Shreveport Weather History for the Previous 24 Hours

Scroll right to see more
 ConditionsComfort  
Time TempWeatherWind HumidityBarometerVisibility
7:56 AM
Sun, Jul 24
80 °FPartly sunny.No wind87%29.96 "Hg10 mi
6:56 AM78 °FPartly cloudy.No wind93%29.94 "Hg8 mi
5:56 AM79 °FPassing clouds.No wind90%29.93 "Hg10 mi
4:56 AM78 °FMostly cloudy.3 mph96%29.91 "Hg10 mi
3:56 AM78 °FPartly cloudy.5 mph93%29.92 "Hg10 mi
2:56 AM79 °FPartly cloudy.5 mph90%29.91 "Hg10 mi
1:56 AM78 °FOvercast.5 mph96%29.91 "Hg10 mi
12:56 AM79 °FOvercast.No wind94%29.91 "Hg10 mi
11:56 PM
Sat, Jul 23
78 °FMostly cloudy.No wind96%29.92 "Hg8 mi
10:56 PM79 °FLight rain. Mostly cloudy.No wind94%29.91 "Hg10 mi
9:56 PM78 °FLight rain. Overcast.3 mph93%29.93 "Hg10 mi
8:56 PM80 °FMore clouds than sun.5 mph85%29.93 "Hg10 mi
7:56 PM82 °FCloudy.7 mph74%29.90 "Hg10 mi
6:56 PM83 °FThunderstorms. Cloudy.21 mph74%29.90 "Hg10 mi
5:56 PM98 °FScattered clouds.5 mph48%29.85 "Hg10 mi
4:56 PM99 °FScattered clouds.3 mph45%29.87 "Hg10 mi
3:56 PM99 °FScattered clouds.3 mph45%29.88 "Hg10 mi
2:56 PM99 °FScattered clouds.3 mph46%29.90 "Hg10 mi
1:56 PM98 °FScattered clouds.No wind46%29.93 "Hg10 mi
12:56 PM97 °FScattered clouds.5 mph51%29.95 "Hg10 mi
11:56 AM94 °FPassing clouds.6 mph58%29.96 "Hg10 mi
10:56 AM92 °FPassing clouds.5 mph62%29.98 "Hg10 mi
9:56 AM89 °FPassing clouds.3 mph68%29.97 "Hg10 mi
Weather by CustomWeather, © 2016

See weather overviewHow to use our weather pages